sat.trackr.live / text

‹ back to catalog

STARLINK-34572

NORAD 64720 · 2025-142AA

PAYLOAD ACTIVE UNKNOWN

§ Identity

Operator
Country
US
Launch date
2025-06-28
Launch site
AFWTR
Launch vehicle
Mass (kg)
RCS (m²)

Purposes: comms

External: N2YO · Heavens-Above · Gunter

§ Orbital elements

Epoch: 2026-05-25T05:12:23.792256Z

Period
96.11 min
Inclination
70.0000°
Eccentricity
0.0003936
Mean motion
14.98337479 rev/d
Perigee alt
569.3 km
Apogee alt
574.8 km
Semi-major
6,950.2 km
B*
2.7751e-4
RAAN
121.5095°
Arg perigee
265.7680°
Mean anomaly
94.3029°
Rev number
5,111

§ Raw data

STARLINK-345721 64720U 25142AA  26145.21694204  .00003220  00000+0  27751-3 0  99902 64720  70.0000 121.5095 0003936 265.7680  94.3029 14.98337479 51116

JSON: /api/v1/satellites/64720 · /tle

For live sub-satellite position, see the globe view (requires WebGL).

§ Visibility from observer

Set your observer location to see the next 7 days of passes ≥ 10°. The values pass through the URL so the page stays shareable.

No JS? Fill the form by hand. The geolocation button needs JavaScript.